Regional Weather Roundup
Issued by NWS Pendleton, OR

Home | Current Version | Previous Version | Text Only | Print | Product List | Glossary On
Versions: 1 2 3 4 5 6 7 8 9 10 11 12 13 14 15 16 17 18 19 20 21 22 23 24 25 26 27 28 29 30 31 32 33 34 35 36 37 38 39 40 41 42 43 44 45 46 47 48 49 50
000
ASUS46 KPDT 290625
RWRPDT
PENDLETON REGIONAL WEATHER ROUNDUP
NATIONAL WEATHER SERVICE PENDLETON OREGON
1100 PM PDT MON JUL 28 2014

NOTE: FAIR INDICATES FEW OR NO CLOUDS BELOW 12,000 FEET WITH NO
SIGNIFICANT WEATHER AND/OR OBSTRUCTIONS TO VISIBILITY.

# INDICATES UNOFFICIAL STATION AND DATA

WAZ520-290710-
EAST SLOPES OF WASHINGTON CASCADES

CITY            SKY/WX      TMP DP  RH  WIND    PRES   REMARKS
#BUMPING DAM    N/A         65  N/A N/A SW2     N/A
#CLE ELUM HS    N/A         72  53  51  NW1     30.03R
#CLE ELUM LAKE  N/A         70  54  57  CALM    29.94S
#CLIFFDEL 2NW   N/A         70  53  55  N2      N/A
#GLENWOOD       N/A         63  59  87  CALM    29.95R
#MANASTASH CYN  N/A         66  52  61  CALM    30.09S
#NELSON         N/A         72  54  53  CALM    29.99S
#NELSON 3SW     N/A         63  49  60  CALM    30.17S
#NILE           N/A         74  53  48  CALM    29.27R
#RONALD 2NW     N/A         69  53  57  N1      30.01S
#TEANAWAY 4NE   N/A         71  56  59  CALM    N/A
#TROUT LAKE 1NE N/A         67  60  78  CALM    29.95S
$$

WAZ521-290710-
SIMCOE HIGHLANDS

CITY            SKY/WX      TMP DP  RH  WIND    PRES   REMARKS
#BICKLETON HS   N/A         80  37  21  N10     30.12S
#CENTERVILLE 1SWN/A         77  59  54  W5      29.88F
#GOLDENDALE 1NE N/A         71  52  51  CALM    N/A
#GOLDENDALE 1S  N/A         74  59  59  CALM    30.01R
#GOLDENDALE 5WNWN/A         75  58  56  W5      29.91R
#GOODNOE HILLS  N/A         80  59  49  NW12    29.93R
#LYLE 6NE       N/A         76  61  60  S2      29.92S
$$

WAZ026-290710-
KITTITAS VALLEY

CITY            SKY/WX      TMP DP  RH  WIND    PRES   REMARKS
ELLENSBURG AP   CLEAR       77  53  43  NW14    30.04R
6HR MIN TEMP:   77; 6HR MAX TEMP:   101;

#ELLENSBURG CWU N/A         77  52  42  N14     29.89R
#ELLENSBURG 3NE N/A         76  54  46  N7      30.03S
#ELLENSBURG 1E  N/A         77  49  37  CALM    N/A
#KITTITAS 3S    N/A         71  56  59  CALM    29.92S
#THORP 6N       N/A         75  51  43  NW16G25 29.96S
$$

WAZ027-290710-
YAKIMA VALLEY

CITY            SKY/WX      TMP DP  RH  WIND    PRES   REMARKS
YAKIMA AIRPORT  CLEAR       82  53  37  W7      29.99S
6HR MIN TEMP:   82; 6HR MAX TEMP:   104;

YAKIMA-VAGABOND CLEAR       82  48  31  E6      30.01S
#COWICHE 1N     N/A         78  52  40  NW7     30.15R
#DONALD 2NE     N/A         84  46  27  SW2     30.29R
#GRANDVIEW      N/A         76  53  45  CALM    29.91R
#MABTON         N/A         77  53  43  CALM    29.93R
#MOXEE 2E       N/A         79  43  28  CALM    29.91S
#NACHES 2SW     N/A         79  53  41  W12     30.04R
#OUTLOOK DOT    N/A         N/A N/A N/A N6      N/A
#SELAH 8E       N/A         77  47  35  E3      N/A
#TERRACE HTS    N/A         80  53  39  CALM    29.88R
#TOPPENISH      N/A         84  57  40  W3      29.83R
#WAPATO 4NE     N/A         84  46  27  SW2     30.29S
#WEST VALLEY    N/A         82  52  35  CALM    29.90R
#W YAKIMA       N/A         83  53  36  N3      29.91R
#WHITE SWAN 5E  N/A         76  58  54  CALM    29.91R
#WILEY CITY 3W  N/A         70  40  34  CALM    29.99R
$$

WAZ028-290710-
LOWER COLUMBIA BASIN...WASHINGTON

CITY            SKY/WX      TMP DP  RH  WIND    PRES   REMARKS
PASCO           CLEAR       72  62  71  NW5     29.91S
6HR MIN TEMP:   72; 6HR MAX TEMP:   103;

PROSSER AWOS    N/A         73  55  53  W7      29.97R
RICHLAND AWOS   CLEAR       82  52  35  CALM    29.91S
#BASIN CITY 5SW N/A         72  59  64  CALM    29.92S
#BENTON CITY    N/A         76  51  42  NW2     29.79S
#CONNELL 5N     N/A         76  43  31  CALM    29.88S
#CONNELL 5NW    N/A         76  46  34  CALM    29.84S
#ELTOPIA        N/A         75  55  50  CALM    29.85R
#ELTOPIA 6NW    N/A         85  50  30  SW2     28.91S
#KENNEWICK 3S   N/A         88  42  20  CALM    29.89S
#PASCO-BROADMOORN/A         81  56  42  CALM    29.78S
#PATERSON       N/A         79  51  38  CALM    29.88R
#PROSSER        N/A         84  45  26  SW7     29.88S
#SAGEMOOR 2W    N/A         82  55  40  SW2     29.73S
#TOUCHET 2S     N/A         68  55  63  CALM    29.87R
#WEST PASCO     N/A         80  57  45  CALM    29.90R
$$

WAZ029-290710-
FOOTHILLS OF THE BLUES...WASHINGTON

CITY            SKY/WX      TMP DP  RH  WIND    PRES   REMARKS
WALLA WALLA AP  PTCLDY      82  48  31  E8      29.98S
6HR MIN TEMP:   82; 6HR MAX TEMP:   101;

#DAYTON SCHOOL  N/A         78  46  32  N6      30.00R
#LOWDEN 2SE     N/A         74  56  53  E2      29.89R
#PLEASANT VIEW 1N/A         85  43  23  CALM    29.91S
#PRESCOTT       N/A         71  49  46  CALM    29.88R
#SUDBURY        N/A         71  N/A N/A CALM    N/A
#WHITMAN COLLEGEN/A         83  48  30  E3      29.94R
#WAITSBURG 8N   N/A         68  28  22  CALM    29.82S
#WALLA WALLA 5E N/A         75  44  33  S15     N/A
#WALLA WALLA U  N/A         82  52  35  CALM    29.88S
#WHITMAN MISSIONN/A         72  56  57  CALM    29.90R
$$

WAZ030-290710-
BLUE MOUNTAINS...WASHINGTON

CITY            SKY/WX      TMP DP  RH  WIND    PRES   REMARKS
$$

ORZ009-041-WAZ024-290710-
COLUMBIA RIVER GORGE

CITY            SKY/WX      TMP DP  RH  WIND    PRES   REMARKS
HOOD RIVER AP   CLEAR       70  61  73  SW3     30.01R
THE DALLES AP   CLEAR       82  59  46  NW10    29.95R
6HR MIN TEMP:   82; 6HR MAX TEMP:   99;

#ARLINGTON AIRPON/A         84  60  44  W13     N/A
#ARLINGTON HS   N/A         84  58  41  CALM    29.80R
#CELILO DOT     N/A         85  57  39  N3      N/A
#MOSIER 1S      N/A         77  47  35  CALM    30.06R
#MURDOCK        N/A         86  61  43  W17     29.95R
#RUFUS DOT      N/A         87  59  39  N8      N/A

$$

ORZ510-290710-
NORTH CENTRAL OREGON

CITY            SKY/WX      TMP DP  RH  WIND    PRES   REMARKS
#CHENOWITH 1W   N/A         75  55  50  W22     N/A
#COW CYN RST AREN/A         77  43  30  CALM    N/A
#DUFUR 9E       N/A         80  49  34  W5      29.96S
#GRASS VALLEY 1SN/A         78  47  34  NW1     29.94F
#KENT DOT       N/A         72  36  27  W1      N/A
#MAUPIN SCHOOL  N/A         81  54  39  CALM    30.02R
#MORO SCHOOL    N/A         80  58  47  W6      30.04S
#SHANIKO 5WSW   N/A         77  36  23  N10     N/A
#SHANIKO 4NW    N/A         76  37  24  VRB9    30.17S
#TYGH VALLEY 2NEN/A         78  52  40  CALM    29.93S
#WAPANITIA AIRPON/A         75  53  46  W3      29.94S
#WASCO DOT      N/A         73  55  53  CALM    N/A
#WASCO AIRPORT  N/A         78  53  42  W3      N/A
#WASCO 5NE      N/A         78  56  47  SW5     29.91S
$$

ORZ511-290710-
CENTRAL OREGON

CITY            SKY/WX      TMP DP  RH  WIND    PRES   REMARKS
BEND AIRPORT    N/A         75  46  36  CALM    30.17
MADRAS AIRPORT  CLEAR       75  48  38  N7      30.11R
REDMOND AIRPORT CLEAR       76  51  42  N8      30.13R
6HR MIN TEMP:   76; 6HR MAX TEMP:   93;

#BEND 6E        N/A         73  44  35  CALM    29.85R
#BEND 1SW       N/A         64  44  48  CALM    N/A
#BEND-AWBREY    N/A         73  50  44  CALM    29.95R
#BEND-KIM LN    N/A         70  52  53  CALM    30.14S
#CULVER         N/A         75  55  50  CALM    30.08R
#LAKE BILLY CHINN/A         80  19  10  NE3     30.12R
#POWELL BUTTE 3EN/A         75  51  43  W6      N/A
#POWELL BUTTE   N/A         74  44  34  S2      29.79S
#PRINEVILLE 3N  N/A         71  47  42  CALM    29.90R


ORZ509-290710-
EAST SLOPES OF OREGON CASCADES

CITY            SKY/WX      TMP DP  RH  WIND    PRES   REMARKS
#BLUE BOX PASS  N/A         62   8  12  CALM    N/A
#BLACK BUTTE RNCN/A         66  56  70  CALM    29.97R
#CAMP SHERMAN   N/A         62  51  67  CALM    29.98R
#LA PINE DOT    N/A         62  43  50  CALM    N/A
#LA PINE 4NW    N/A         60  46  60  CALM    30.02R
#LAVA BUTTE DOT N/A         62  43  50  CALM    N/A
#SISTERS AIRPOR N/A         74  60  62  CALM    30.13R
#SISTERS ODOT   N/A         70  N/A N/A CALM    N/A
#SISTERS 1NW    N/A         77  53  43  NW5     N/A
#SISTERS 3N     N/A         66  48  52  CALM    N/A
#SUNRIVER       N/A         60  53  78  CALM    29.89R
#SUNRIVER AP    N/A         57  52  83  CALM    29.97R
#SUTTLE LK DOT  N/A         62  56  81  W12     N/A
#TUMALO 3W      N/A         76  50  40  W3      29.83R
#WANOGA BUTTE D N/A         65  37  35  NE2     N/A

$$

ORZ044-290710-
LOWER COLUMBIA BASIN...OREGON

CITY            SKY/WX      TMP DP  RH  WIND    PRES   REMARKS
HERMISTON       CLEAR       77  49  37  S7      29.93S
6HR MIN TEMP:   73; 6HR MAX TEMP:   103;

#BOARDMAN SCHOOLN/A         102 42  13  CALM    29.89R HX 97
#BOARDMAN 3W    N/A         74  58  57  W3      29.62S
#BOARDMAN 8SW   N/A         79  58  49  SW7     29.89S
#IONE SCHOOL    N/A         73  44  35  NE1     29.97S
#IRRIGON 4NW    N/A         75  56  52  NE3     N/A
#UMATILLA SCHOOLN/A         77  66  69  W1      30.00R
#UMATILLA       N/A         80  54  41  CALM    29.89R
$$

ORZ507-290710-
NORTHERN FOOTHILLS OF THE BLUES

CITY            SKY/WX      TMP DP  RH  WIND    PRES   REMARKS
PENDLETON AIRPT PTCLDY      77  42  29  SE9     29.99S
6HR MIN TEMP:   77; 6HR MAX TEMP:   101;

#ADAMS 3WNW     N/A         73  43  34  CALM    29.90R
#ATHENA         N/A         72  49  44  CALM    29.93R
#HELIX SCHOOL   N/A         71  44  38  CALM    29.90R
#HELIX 3N       N/A         77  43  30  N3      29.99S
#HELIX 6SW      N/A         72  44  37  CALM    29.99R
#HOLDMAN 5SE    N/A         72  43  35  CALM    29.99S
#HOLDMAN 6E     N/A         66  42  42  S1      29.72S
#M-F FERNDALE   N/A         81  51  35  CALM    29.95R
#M-F GROVE ELEM N/A         80  47  31  S3      29.96S
#M-FREEWATER 5SEN/A         78  54  43  NE5     29.98S
#PDT AQUATIC CTRN/A         77  44  31  CALM    29.92S
#PENDLETON DNTN N/A         77  45  32  CALM    29.95R
#PENDLETON 5NE  N/A         74  47  38  CALM    29.94R
#PDT SUNRIDGE   N/A         77  46  33  E1      29.99R
#PENDLETON 7NW  N/A         71  45  39  CALM    29.76S
#PILOT ROCK     N/A         79  42  27  SE8     30.03F
#TUTUILLA       N/A         71  50  47  CALM    29.86R
#UMAPINE 2E     N/A         76  54  46  SE6     29.91S
#WESTON SCHOOL  N/A         78  42  28  CALM    30.00R

$$

ORZ508-290710-
SOUTHERN FOOTHILLS OF THE BLUES

CITY            SKY/WX      TMP DP  RH  WIND    PRES   REMARKS
#AJAX           N/A         N/A N/A N/A NW5     30.09S
#CONDON SCHOOL  N/A         78  45  31  N3      30.06S
#CONDON 5W      N/A         77  41  28  NW6     30.11S
#FOSSIL SCHOOL  N/A         72  41  33  CALM    30.07S
#HEPPNER 4NE    N/A         75  38  26  CALM    29.91S
#LEXINGTON 2SE  N/A         74  41  30  SE7     29.99S
#MIKKALO        N/A         79  48  34  W2      30.04S
#OLEX 4N        N/A         82  55  40  SW8     29.96S
#RUGGS 5NE      N/A         74  28  18  S1      30.23F
#RUGGS 2SW      N/A         78  39  25  SW6     29.96S

$$

ORZ502-503-290710-
BLUE MOUNTAINS

CITY            SKY/WX      TMP DP  RH  WIND    PRES   REMARKS
MEACHAM         PTCLDY      60  50  69  CALM    30.18S
6HR MIN TEMP:   60; 6HR MAX TEMP:   90;

#BATTLE MTN DOT N/A         69  43  39  N3      N/A
#HARDMAN 10S    N/A         68  40  36  CALM    30.23F
#HEPPNER 15SE   N/A         64  41  43  E1      30.13S
#LADD CYN SMT   N/A         66  36  33  N3      N/A
#LADD CREEK ODOTN/A         74  47  38  S5      N/A
#LONG CREEK HS  N/A         68  41  37  SW5     30.12S
#PIKES PEAK     N/A         83  41  23  S2      27.99S
#TOLLGATE 9W    N/A         69  45  42  E1      N/A
#TROY SCHOOL    N/A         76  53  45  CALM    29.77R
#UKIAH          N/A         62  46  56  CALM    29.98R
#WESTON 4E      N/A         78  43  29  CALM    29.85S
$$

ORZ505-290710-
JOHN DAY BASIN

CITY            SKY/WX      TMP DP  RH  WIND    PRES   REMARKS
JOHN DAY        PTCLDY      76  43  31  E7      30.16R
#MONUMENT HS    N/A         74  42  32  CALM    29.80R
#MT. VERNON 5SE N/A         75  41  29  CALM    30.13S
#WINLOCK        N/A         74  38  27  CALM    30.20R
$$

ORZ506-290710-
OCHOCO AND JOHN DAY HIGHLANDS

CITY            SKY/WX      TMP DP  RH  WIND    PRES   REMARKS
#BUCK CREEK DOT N/A         75  38  26  NW6     N/A
#HORSE RIDGE DO N/A         62  36  38  CALM    N/A
#KEYES SMT DOT  N/A         73  36  26  N6      N/A
#PINE MTN OBS   N/A         68  44  42  NW8     N/A
#PRAIRIE CITY   N/A         61  47  60  CALM    30.08R
#SENECA 9NW     N/A         67  42  40  CALM    29.86S
$$

ORZ049-290710-
GRANDE RONDE VALLEY

CITY            SKY/WX      TMP DP  RH  WIND    PRES   REMARKS
LA GRANDE       PTCLDY      73  39  29  N7      30.08S
#COVE           N/A         71  52  51  E1      30.00S
#COVE SCHOOL    N/A         70  49  47  SE1     30.06S
#COVE 6NW       N/A         70  48  46  CALM    29.94S
#ELGIN 3N       N/A         69  44  40  CALM    29.82R
#ELGIN 1E       N/A         72  49  44  CALM    N/A
#IMBLER SCHOOL  N/A         72  48  43  CALM    30.04S
#ISLAND CITY 4N N/A         69  48  47  CALM    29.85S
#LADD CYN DOT   N/A         77  44  31  SE7     N/A
#UNION 1S       N/A         70  51  51  CALM    29.82R
$$

ORZ050-290710-
WALLOWA COUNTY

CITY            SKY/WX      TMP DP  RH  WIND    PRES   REMARKS
JOSEPH AIRPORT  MOCLDY      70  46  42  S3      30.19F
#ENTERPRISE AP  N/A         66  35  32  CALM    29.99S
#ENTERPRISE HS  N/A         70  49  47  CALM    30.14S
#IMNAHA 10S     N/A         82  44  26  SW5     30.07R
#JOSEPH 3N      N/A         66  52  61  CALM    30.18S
#JOSEPH 3W      N/A         73  40  30  W2      30.06S
#LOSTINE        N/A         70  47  44  SE1     29.73R
#MT HOWARD 8000 N/A         63  35  35  N1      30.52F
#PROMISE 1S     N/A         71  45  39  E1      30.01F
#SHEEP RDG 7000 N/A         68  35  29  CALM    29.93F
#WALLOWA SCHOOL N/A         66  52  61  CALM    30.78S



$$



USA.gov is the U.S. government's official web portal to all federal, state and local government web resources and services.